Regional Weather Roundup
Issued by NWS

Home | Current Version | Previous Version | Graphics & Text | Print | Product List | Glossary On
Versions: 1 2 3 4 5 6 7 8 9 10 11 12 13 14 15 16 17 18 19 20 21 22 23 24 25 26 27 28 29 30 31 32 33 34 35 36 37 38 39 40 41 42 43 44 45 46 47 48 49 50
000
ASUS45 KBOU 271307
RWRCO

WEATHER ROUNDUP FOR COLORADO
NATIONAL WEATHER SERVICE DENVER/BOULDER CO
600 AM MST TUE JAN 27 2015

NOTE: "FAIR" INDICATES FEW OR NO CLOUDS BELOW 12000 FEET WITH NO
SIGNIFICANT WEATHER AND/OR OBSTRUCTIONS TO VISIBILITY.

COZ001>005-013-030-031-271400-
...NORTHWEST COLORADO...

CITY           SKY/WX    TMP DP  RH WIND       PRES   REMARKS
CRAIG          CLEAR     11   7  84 W3        30.31
HAYDEN         PTCLDY    27  18  69 SE14      30.32S WCI  15
MEEKER         PTCLDY    17  12  80 CALM      30.31S
MOUNT WERNER   NOT AVBL
STEAMBOAT SPGS PTCLDY    21  19  91 CALM      30.34S
WALDEN         PTCLDY    12   9  85 NW5       30.36F WCI   4
$$

COZ006>008-011-271400-
...WEST CENTRAL VALLEYS...

CITY           SKY/WX    TMP DP  RH WIND       PRES   REMARKS
GRAND JUNCTION PTCLDY    32  25  75 NE3       30.27F
MONTROSE       MOCLDY    28  22  78 SE8       30.32F WCI  20
EAGLE          PTCLDY    18  16  93 CALM      30.44R
RIFLE          PTCLDY    27  22  81 S3        30.33F
DELTA          MOCLDY    28  23  83 CALM      30.32S
NUCLA          MOCLDY    34  27  75 CALM      30.36R
$$

COZ017>023-064>068-271400-
...SOUTHWEST COLORADO...

CITY           SKY/WX    TMP DP  RH WIND       PRES   REMARKS
DURANGO        PTCLDY    28  23  81 CALM      30.34S
CORTEZ         CLEAR     27  22  81 E6        30.32R WCI  20
PAGOSA SPRINGS PTCLDY    26  21  80 CALM      30.39R
TELLURIDE      MOCLDY    39  16  39 CALM      30.40F
WOLF CREEK PAS NOT AVBL
$$

COZ009-010-012-014-032>034-037-058>063-271400-
...CENTRAL COLORADO...

CITY           SKY/WX    TMP DP  RH WIND       PRES   REMARKS
ASPEN          PTCLDY    20  13  74 S6        30.35F WCI  12
BUENA VISTA    PTCLDY    24  18  76 NW5       30.38S WCI  18
COPPER MTN     PTCLDY    37   3  23 S10       30.50S
BERTHOUD PASS  FAIR      30  25  80 NW15      30.52S WCI  19
COTTONWOOD PAS PTCLDY    39  10  30 SE5       30.41F
GUNNISON       PTCLDY     0 -13  55 CALM      30.48S
KREMMLING      FOG      N/A N/A N/A CALM      30.46S VSB 1/4
LEADVILLE      PTCLDY    18   8  65 N6        30.41F WCI  10
MONARCH PASS   PTCLDY    30  12  47 SW25      30.59S WCI  16
SALIDA         PTCLDY    33  19  55 NW12      30.45S WCI  24
SUNLIGHT       PTCLDY    36  18  48 CALM        N/A
WILKERSON PASS MOCLDY    32  12  43 SW9       30.47F WCI  24
$$

COZ069>075-271400-
...SAN LUIS VALLEY/SANGRE DE CRISTO MOUNTAINS...

CITY           SKY/WX    TMP DP  RH WIND       PRES   REMARKS
ALAMOSA        PTCLDY     9   5  84 CALM      30.40F
LA VETA PASS   NOT AVBL
SAGUACHE       PTCLDY    21  16  79 NW13      30.41S WCI   9
$$

COZ035-036-038>040-271400-
...NORTHERN COLORADO FRONT RANGE...

CITY           SKY/WX    TMP DP  RH WIND       PRES   REMARKS
DENVER INTL AP CLEAR     48  21  34 SW18      30.15F
DMNS CITY PARK   N/A     48  18  30 S10G16    30.15S
AURORA         CLEAR     43  21  40 SW10      30.17F
FRONT RANGE AP NOT AVBL
ERIE MUNI ARPT CLEAR     39  22  50 S3        30.13S
BOULDER MUN AP CLEAR     50  19  29 S6        30.13S
CENTENNIAL     PTCLDY    46  19  34 S10       30.18S
BROOMFIELD     CLEAR     48  18  29 CALM      30.16F
FORT COLLINS   CLEAR     32  21  64 W5        30.14S WCI  27
LONGMONT       CLEAR     34  24  65 CALM      30.14F
$$

COZ041-046-047-076>085-087-088-271400-
...PIKES PEAK/PALMER DIVIDE AND SOUTHERN FOOTHILLS...

CITY           SKY/WX    TMP DP  RH WIND       PRES   REMARKS
COLO. SPRINGS  PTCLDY    38  22  52 N9        30.23F
A. F. ACADEMY  PTCLDY    33  21  62 N7        30.24S WCI  26
ELLICOTT       PTCLDY   N/A N/A N/A NE3       30.22S
FALCON         PTCLDY    35  20  54 NW7       30.26F WCI  29
FORT CARSON    PTCLDY    39  23  52 N12       30.20S
LIMON          CLEAR     30  23  75 N7        30.17F WCI  23
MONUMENT HILL  PTCLDY    41  19  42 SW8       30.25S
TRINIDAD       CLEAR     41  22  46 SW17      30.24S
$$

COZ042>045-048>051-090-091-271400-
...NORTHEAST COLORADO...

CITY           SKY/WX    TMP DP  RH WIND       PRES   REMARKS
GREELEY ARPT   CLEAR     27  18  69 CALM      30.12F
AKRON          CLEAR     40  28  62 W15       30.11S
BURLINGTON     CLEAR     40  27  59 W9        30.12S
WRAY           PTCLDY    34  30  84 SW8       30.09S WCI  27
STERLING       CLEAR     32  32 100 SW8       30.10R WCI  25
HOLYOKE        PTCLDY    41  32  70 W12       30.08R
FORT MORGAN    CLEAR     30  26  84 W7        30.12F WCI  23
$$

COZ086-089-092>099-271400-
...SOUTHEAST COLORADO...

CITY           SKY/WX    TMP DP  RH WIND       PRES   REMARKS
PUEBLO         PTCLDY    31  25  78 W9        30.19S WCI  23
LA JUNTA       PTCLDY    35  27  72 W6        30.17S WCI  30
LAMAR          PTCLDY    33  29  85 SW8       30.15S WCI  26
SPRINGFIELD      N/A     42  26  53 W9        30.17F
$$


USA.gov is the U.S. government's official web portal to all federal, state and local government web resources and services.